Change the Weather History Date:

Tuesday, June 18, 2013

  Actual Average Record
Temperature  
Mean Temperature 67 °F -  
Max Temperature 79 °F 82 °F 94 °F (1987)
Min Temperature 55 °F 58 °F 44 °F (2005)
Cooling Degree Days 2    
Growing Degree Days 17 (Base 50)    
Moisture  
Dew Point 55 °F    
Average Humidity 69    
Maximum Humidity 84    
Minimum Humidity 53    
Precipitation  
Precipitation 0.00 in - - ()
Sea Level Pressure  
Sea Level Pressure 30.04 in    
Wind  
Wind Speed 8 mph (NE)    
Max Wind Speed 14 mph    
Max Gust Speed 18 mph    
Visibility 10 miles    
Events      
Averages and records for this station are not official NWS values.
T = Trace of Precipitation, MM = Missing Value Source: NWS Daily Summary

Daily Weather History Graph

Daily Weather History Graph

Search for Another Location

Airport or City:

Trip Planner

Search our weather history database for the weather conditions in past years. The results will help you decide how hot, cold, wet, or windy it might be!

Date:

Astronomy

Jun. 18, 2013 Rise Set
Actual Time 5:21 AM CDT 8:37 PM CDT
Civil Twilight 4:46 AM CDT 9:12 PM CDT
Nautical Twilight 4:02 AM CDT 9:57 PM CDT
Astronomical Twilight 3:07 AM CDT 10:51 PM CDT
Moon 3:17 PM CDT (6/18) 1:34 AM CDT (6/18)
Length of Visible Light 16h 25m
Length of Day
15h 16m
Waxing Gibbous, 71% of the Moon is Illuminated
Jun 18
Waxing Gibbous
Jun 23
Full
Jun 29
Last Quarter
Jul 8
New
Jul 15
First Quarter

Hourly Weather History & Observations

Time (CDT) Temp. Dew Point Humidity Pressure Visibility Wind Dir Wind Speed Gust Speed Precip Events Conditions
12:15 AM 61.7 °F 55.8 °F 81% 29.96 in 10.0 mi NE 5.8 mph - N/A   Clear
12:35 AM 61.7 °F 56.3 °F 82% 29.97 in 10.0 mi NE 5.8 mph - N/A   Clear
12:55 AM 61.7 °F 56.3 °F 82% 29.97 in 10.0 mi NE 5.8 mph - N/A   Clear
1:15 AM 61.7 °F 56.3 °F 82% 29.97 in 10.0 mi NE 6.9 mph - N/A   Clear
1:35 AM 60.1 °F 55.2 °F 84% 29.97 in 10.0 mi ENE 4.6 mph - N/A   Clear
1:55 AM 59.0 °F 54.1 °F 84% 29.98 in 10.0 mi NE 5.8 mph - N/A   Clear
2:15 AM 59.4 °F 54.5 °F 84% 29.98 in 10.0 mi NE 5.8 mph - N/A   Clear
2:35 AM 59.0 °F 54.1 °F 84% 29.98 in 10.0 mi NE 6.9 mph - N/A   Clear
2:55 AM 59.0 °F 53.8 °F 83% 29.98 in 10.0 mi NNE 8.1 mph - N/A   Scattered Clouds
3:15 AM 59.0 °F 53.1 °F 81% 29.99 in 10.0 mi NNE 11.5 mph - N/A   Scattered Clouds
3:35 AM 59.0 °F 53.6 °F 82% 29.98 in 10.0 mi NNE 10.4 mph - N/A   Mostly Cloudy
3:55 AM 59.0 °F 53.6 °F 82% 29.98 in 10.0 mi NNE 9.2 mph - N/A   Mostly Cloudy
4:15 AM 59.0 °F 54.0 °F 83% 29.98 in 10.0 mi NNE 9.2 mph - N/A   Clear
4:35 AM 59.0 °F 54.0 °F 83% 29.99 in 10.0 mi NNE 8.1 mph - N/A   Clear
4:55 AM 59.0 °F 54.0 °F 83% 30.00 in 10.0 mi NE 8.1 mph - N/A   Clear
5:15 AM 59.0 °F 54.0 °F 83% 30.00 in 10.0 mi NNE 8.1 mph - N/A   Clear
5:35 AM 59.0 °F 53.6 °F 82% 30.01 in 10.0 mi NNE 9.2 mph - N/A   Mostly Cloudy
5:55 AM 59.0 °F 53.6 °F 82% 30.02 in 10.0 mi NE 8.1 mph - N/A   Mostly Cloudy
6:15 AM 59.0 °F 53.8 °F 83% 30.03 in 10.0 mi NE 8.1 mph - N/A   Scattered Clouds
6:35 AM 59.0 °F 53.8 °F 83% 30.04 in 10.0 mi NE 5.8 mph - N/A   Scattered Clouds
6:55 AM 59.0 °F 53.6 °F 82% 30.04 in 10.0 mi NE 6.9 mph - N/A   Scattered Clouds
7:15 AM 59.0 °F 53.4 °F 82% 30.05 in 10.0 mi NE 8.1 mph - N/A   Mostly Cloudy
7:35 AM 59.0 °F 52.9 °F 80% 30.05 in 10.0 mi NE 10.4 mph - N/A   Scattered Clouds
7:55 AM 61.0 °F 54.1 °F 78% 30.06 in 10.0 mi NE 10.4 mph - N/A   Mostly Cloudy
8:15 AM 61.5 °F 54.5 °F 78% 30.06 in 10.0 mi NE 9.2 mph - N/A   Scattered Clouds
8:35 AM 63.1 °F 54.7 °F 74% 30.06 in 10.0 mi NNE 12.7 mph - N/A   Scattered Clouds
8:55 AM 64.0 °F 54.7 °F 72% 30.06 in 10.0 mi NNE 9.2 mph - N/A   Clear
9:15 AM 64.0 °F 54.3 °F 71% 30.06 in 10.0 mi NNE 10.4 mph 17.3 mph N/A   Clear
9:35 AM 65.1 °F 54.7 °F 69% 30.06 in 10.0 mi NE 12.7 mph - N/A   Scattered Clouds
9:55 AM 66.6 °F 55.2 °F 67% 30.05 in 10.0 mi NE 10.4 mph - N/A   Scattered Clouds
10:15 AM 67.5 °F 55.4 °F 65% 30.05 in 10.0 mi NE 8.1 mph - N/A   Clear
10:35 AM 69.3 °F 56.7 °F 64% 30.05 in 10.0 mi NE 10.4 mph - N/A   Clear
10:55 AM 69.3 °F 55.9 °F 62% 30.06 in 10.0 mi NNE 8.1 mph - N/A   Scattered Clouds
11:15 AM 71.8 °F 57.0 °F 60% 30.06 in 10.0 mi NNE 6.9 mph - N/A   Clear
11:35 AM 72.9 °F 57.7 °F 59% 30.06 in 10.0 mi NE 8.1 mph - N/A   Clear
11:55 AM 74.3 °F 58.3 °F 57% 30.05 in 10.0 mi NNE 9.2 mph - N/A   Clear
12:15 PM 74.3 °F 58.6 °F 58% 30.06 in 10.0 mi NNE 8.1 mph - N/A   Clear
12:35 PM 74.3 °F 57.9 °F 57% 30.06 in 10.0 mi NE 8.1 mph 17.3 mph N/A   Clear
12:55 PM 74.3 °F 59.4 °F 60% 30.06 in 10.0 mi NE 11.5 mph - N/A   Clear
1:15 PM 75.7 °F 59.4 °F 57% 30.06 in 10.0 mi North 10.4 mph - N/A   Clear
1:35 PM 74.7 °F 58.5 °F 57% 30.06 in 10.0 mi North 5.8 mph - N/A   Clear
1:55 PM 74.5 °F 58.6 °F 58% 30.06 in 10.0 mi NE 8.1 mph - N/A   Clear
2:15 PM 75.9 °F 59.2 °F 56% 30.06 in 10.0 mi NNE 11.5 mph - N/A   Scattered Clouds
2:35 PM 75.0 °F 59.2 °F 58% 30.05 in 10.0 mi North 11.5 mph 16.1 mph N/A   Scattered Clouds
2:55 PM 78.3 °F 60.6 °F 54% 30.05 in 10.0 mi North 9.2 mph 17.3 mph N/A   Scattered Clouds
3:15 PM 78.1 °F 59.7 °F 53% 30.05 in 10.0 mi NE 13.8 mph - N/A   Scattered Clouds
3:35 PM 77.5 °F 59.2 °F 53% 30.05 in 10.0 mi NE 11.5 mph 17.3 mph N/A   Mostly Cloudy
3:55 PM 74.5 °F 57.7 °F 56% 30.05 in 10.0 mi North 10.4 mph - N/A   Mostly Cloudy
4:15 PM 75.6 °F 58.5 °F 55% 30.05 in 10.0 mi NE 8.1 mph - N/A   Mostly Cloudy
4:35 PM 74.8 °F 57.6 °F 55% 30.05 in 10.0 mi NE 13.8 mph - N/A   Mostly Cloudy
4:55 PM 75.2 °F 58.3 °F 56% 30.05 in 10.0 mi NE 11.5 mph 18.4 mph N/A   Mostly Cloudy
5:15 PM 74.7 °F 57.9 °F 56% 30.05 in 10.0 mi NE 12.7 mph - N/A   Scattered Clouds
5:35 PM 74.3 °F 57.4 °F 55% 30.05 in 10.0 mi NE 10.4 mph - N/A   Scattered Clouds
5:55 PM 74.3 °F 57.6 °F 56% 30.05 in 10.0 mi NNE 9.2 mph - N/A   Scattered Clouds
6:15 PM 74.3 °F 57.9 °F 57% 30.05 in 10.0 mi NNE 9.2 mph - N/A   Clear
6:35 PM 74.3 °F 57.0 °F 55% 30.05 in 10.0 mi NNE 10.4 mph - N/A   Scattered Clouds
6:55 PM 74.3 °F 58.1 °F 57% 30.06 in 10.0 mi NE 6.9 mph - N/A   Scattered Clouds
7:15 PM 73.0 °F 57.2 °F 57% 30.06 in 10.0 mi ENE 9.2 mph 17.3 mph N/A   Scattered Clouds
7:35 PM 71.8 °F 56.8 °F 59% 30.06 in 10.0 mi NNE 9.2 mph - N/A   Clear
7:55 PM 69.3 °F 55.4 °F 61% 30.07 in 10.0 mi NE 11.5 mph - N/A   Clear
8:15 PM 67.3 °F 54.3 °F 63% 30.07 in 10.0 mi NE 10.4 mph - N/A   Clear
8:35 PM 65.3 °F 52.5 °F 63% 30.07 in 10.0 mi NE 8.1 mph - N/A   Clear
8:55 PM 63.9 °F 53.6 °F 69% 30.07 in 10.0 mi NE 6.9 mph - N/A   Clear
9:15 PM 64.0 °F 51.1 °F 63% 30.08 in 10.0 mi NE 8.1 mph - N/A   Clear
9:35 PM 62.6 °F 51.1 °F 66% 30.09 in 10.0 mi ENE 8.1 mph - N/A   Clear
9:55 PM 61.7 °F 50.9 °F 68% 30.10 in 10.0 mi ENE 6.9 mph - N/A   Clear
10:15 PM 60.4 °F 51.8 °F 73% 30.11 in 10.0 mi ENE 5.8 mph - N/A   Clear
10:35 PM 59.0 °F 52.0 °F 78% 30.11 in 10.0 mi ENE 4.6 mph - N/A   Clear
10:55 PM 59.0 °F 52.7 °F 80% 30.11 in 10.0 mi East 5.8 mph - N/A   Clear
11:15 PM 59.0 °F 53.4 °F 82% 30.11 in 10.0 mi East 5.8 mph - N/A   Clear
11:35 PM 56.5 °F 50.9 °F 82% 30.11 in 10.0 mi East 5.8 mph - N/A   Clear
11:55 PM 55.4 °F 49.6 °F 81% 30.11 in 10.0 mi East 5.8 mph - N/A   Clear